Temperature
16 17 17 17 17 16 15 15 14 15 15 16 16 16 17 17 18 17 17 17 17 17 17 17 16 16 16 16 15 15 15 15 15 15 14 14 14 14 14 14 14 14 14 14
16 17 17 17 17 16 16 16 15 15 16 16 17 17 17 17 17 17 17 17 17 17 17 17 16 16 16 16 15 15 15 15 15 15 15 14 14 14 14 14 14 14 14 14
15 15 16 16 17 17 17 16 16 16 16 16 16 16 16 17 17 17 17 17 17 17 17 17 16 16 16 16 15 15 15 15 15 15 14 14 14 14 14 14 14 14 14 14
13 15 16 16 17 17 17 17 16 16 16 16 16 17 17 17 17 17 17 17 17 17 16 16 16 16 16 15 15 15 15 15 15 14 14 14 14 14 14 14 14 14 14 14
12 14 14 16 17 16 17 17 16 16 16 16 16 16 16 17 17 17 17 17 17 17 16 16 16 16 16 15 15 15 15 15 14 14 14 14 14 14 14 14 14 14 13 13
12 14 15 16 17 17 17 16 17 16 15 15 15 14 15 17 17 17 17 17 16 16 16 16 16 15 15 15 15 15 14 14 14 14 14 14 14 14 14 14 13 13 13 13
12 13 14 15 16 17 16 16 17 17 16 16 15 16 17 17 17 17 17 16 16 16 16 16 15 15 15 15 15 14 14 14 14 14 14 14 14 14 14 13 13 13 13 13
11 13 14 16 15 15 16 17 17 17 17 17 17 17 17 17 17 16 16 16 16 16 15 15 15 15 14 14 14 14 14 14 14 14 13 13 13 13 13 13 13 13 12 12
12 14 15 16 16 17 17 17 17 17 17 17 17 17 17 16 16 16 16 15 15 15 15 15 14 14 14 14 14 14 14 14 14 13 13 13 13 13 13 13 12 12 12 12
11 12 15 16 16 17 17 17 17 17 17 17 16 16 16 16 16 15 15 15 15 14 14 14 14 14 14 14 14 13 13 13 13 13 13 13 13 13 13 12 12 12 12 12
11 12 14 16 16 17 17 17 17 17 16 16 16 16 16 15 15 15 15 14 14 14 14 14 13 13 13 13 13 13 13 13 13 13 13 13 12 12 12 12 12 12 12 12
12 14 13 15 16 16 16 16 16 16 16 16 16 15 15 15 15 15 14 14 14 14 13 13 13 13 13 13 13 13 13 13 13 12 12 12 12 12 12 12 12 11 11 11
15 15 15 15 15 16 16 16 16 16 15 15 15 15 15 15 14 14 14 14 14 13 13 13 13 13 13 13 13 13 12 12 12 12 12 12 12 12 12 12 11 11 11 11
14 14 14 15 15 15 15 15 15 15 15 15 14 14 14 14 14 14 13 13 13 13 13 13 13 13 13 13 12 12 12 12 12 12 12 12 11 11 11 11 11 11 11 11
14 14 14 14 14 14 14 14 14 14 14 14 14 14 13 13 13 13 13 13 13 12 12 12 12 12 12 12 12 12 12 12 12 12 12 11 11 11 11 11 11 11 11 10
13 13 13 13 13 13 13 13 13 13 13 13 13 13 13 13 13 13 12 12 12 12 12 12 12 12 12 12 11 11 11 11 11 11 11 11 11 11 11 10 10 10 10 10
12 12 12 12 12 12 12 12 12 12 12 12 12 12 12 12 12 12 12 12 12 11 11 11 11 11 11 11 11 11 11 11 11 11 11 10 10 10 10 10 10 10 10 10
12 12 12 12 12 12 12 12 12 12 12 12 12 12 12 11 11 12 12 11 11 11 11 11 11 11 11 10 10 10 10 10 10 10 10 10 10 10 10 10 10 9 9 9
11 12 12 12 12 12 12 11 11 11 11 11 11 11 11 11 11 11 11 11 11 11 11 10 10 10 10 10 10 10 10 10 10 10 9 9 9 9 9 9 9 9 9 8
11 11 11 11 11 11 11 11 11 11 11 11 11 11 11 11 11 11 11 11 10 10 10 10 10 10 10 10 9 9 9 9 9 9 9 9 9 9 9 8 8 8 8 8
11 11 11 10 10 10 10 10 10 10 10 11 10 10 10 10 10 10 10 10 10 10 10 10 10 10 9 9 9 9 9 9 9 9 9 9 8 8 8 8 8 8 8 8
10 10 10 10 10 10 10 10 10 10 10 10 10 10 10 10 10 10 10 10 10 10 9 9 9 9 9 9 9 9 9 8 8 8 8 8 8 8 8 8 7 7 7 7
9 9 9 9 9 9 9 9 9 9 9 9 9 9 9 9 9 9 9 9 9 9 9 9 9 9 9 8 8 8 8 8 8 8 8 7 7 7 7 7 7 7 7 7
9 9 8 9 9 9 9 9 9 9 9 9 9 9 9 9 9 9 9 9 9 8 8 8 8 8 8 8 7 7 7 7 7 7 7 7 6 6 6 6 6 6 6 6
8 8 8 8 8 8 8 8 8 8 8 8 8 8 8 8 8 8 8 8 8 8 8 8 7 7 7 7 7 7 6 6 6 6 6 6 6 6 6 6 5 5 5 5
7 7 7 7 7 7 7 7 7 7 7 7 7 7 7 7 7 7 7 7 7 7 7 7 7 6 6 6 6 6 6 5 5 5 5 5 5 5 5 5 5 5 5 5
7 6 6 6 6 6 6 6 6 6 6 6 6 7 7 7 7 7 6 6 6 6 6 6 6 6 6 5 5 5 5 5 5 5 5 5 4 4 4 4 4 4 4 4
Wind_Speed
6 5 4 5 6 6 7 8 8 8 8 11 8 7 6 4 4 4 5 5 6 6 5 4 4 3 3 3 3 3 3 4 4 4 3 3 2 2 2 2 3 2 2 2
3 3 3 5 7 7 7 6 7 6 9 9 5 3 3 3 4 5 6 6 6 6 5 5 5 5 4 4 3 3 3 4 4 3 3 3 3 2 2 2 2 2 2 3
4 4 2 7 8 8 6 7 8 9 9 4 2 4 5 5 5 5 5 6 6 6 6 5 5 5 5 4 3 3 3 3 3 3 3 3 3 3 3 3 3 3 3 3
1 1 6 9 5 7 7 7 8 7 6 5 5 4 3 4 6 5 5 5 5 5 5 4 4 4 4 3 2 3 3 3 3 2 3 3 3 3 4 3 3 3 3 3
3 3 8 9 5 5 5 6 6 7 6 3 2 2 2 3 5 6 6 6 6 5 5 4 4 3 3 3 3 3 3 4 3 3 3 3 3 4 3 3 3 3 3 3
4 3 6 7 4 2 2 5 5 6 6 4 4 1 6 4 4 4 4 4 4 4 3 3 3 3 3 3 3 4 5 5 4 4 4 4 5 4 3 3 4 3 3 3
5 5 8 8 3 3 3 6 3 5 5 5 6 7 5 3 3 3 3 3 3 3 3 4 4 4 4 3 5 5 4 4 3 4 5 5 4 3 3 3 2 2 3 2
5 5 8 4 3 5 6 3 2 3 4 5 6 4 3 3 3 3 2 2 2 3 2 2 3 4 4 5 5 3 3 3 3 3 3 3 3 3 3 4 3 3 2 2
8 8 5 3 5 4 2 3 4 4 4 4 4 5 4 3 3 3 3 2 2 3 2 2 3 4 5 5 3 2 2 3 3 3 2 3 3 3 3 3 3 3 3 3
4 8 6 6 5 4 3 4 4 4 4 4 4 5 4 4 3 3 3 3 2 3 3 3 3 3 4 4 3 3 3 3 3 2 2 2 2 3 3 4 4 4 4 4
5 7 7 6 5 5 4 4 3 2 2 4 4 4 5 5 5 4 4 3 3 4 4 4 3 3 3 3 3 3 3 3 3 3 3 2 2 2 4 4 5 6 5 5
7 7 5 8 7 5 4 4 3 2 2 2 3 4 4 4 4 4 4 4 4 4 4 4 4 4 3 3 3 4 3 3 3 3 2 2 2 1 3 3 4 5 5 5
6 5 5 6 5 4 4 4 3 2 3 3 2 3 4 3 4 4 4 4 5 5 5 4 3 3 3 3 3 4 4 4 3 3 3 3 3 3 2 2 2 4 5 6
5 3 4 4 5 4 3 3 2 1 2 1 1 1 2 2 2 3 4 5 5 4 4 4 3 4 4 3 3 3 3 4 4 4 4 4 4 3 3 3 3 3 4 5
5 5 5 5 4 3 2 1 1 2 3 2 1 1 2 3 4 4 4 3 3 3 3 3 3 4 3 3 3 3 3 3 3 3 3 3 3 3 3 3 3 3 2 3
4 3 3 2 3 3 2 1 2 3 3 3 3 3 4 4 4 3 3 3 4 4 4 4 4 4 3 3 3 3 3 4 3 2 2 2 2 2 3 3 3 3 3 3
2 3 4 4 4 4 4 4 3 4 4 3 4 3 2 1 1 2 3 3 4 4 4 4 5 4 3 4 4 3 3 3 3 3 3 3 3 3 3 3 3 4 4 4
6 6 6 5 5 5 4 4 3 4 4 4 3 2 2 3 4 5 4 3 2 2 3 4 4 3 3 3 4 3 3 3 3 3 3 3 3 3 3 3 4 4 3 3
5 6 5 5 5 4 4 4 3 3 3 3 2 3 4 4 5 4 3 3 3 4 5 4 4 3 3 4 3 3 3 3 3 3 3 3 3 3 3 4 4 3 3 3
5 4 4 4 3 3 3 3 3 3 3 2 2 2 3 4 3 3 3 4 5 5 4 4 4 4 4 4 3 3 4 4 4 3 3 3 3 4 4 4 4 4 4 4
3 3 3 3 3 3 3 3 2 3 3 2 2 3 4 4 3 3 3 4 5 4 3 4 3 3 3 3 4 3 4 4 4 4 4 4 4 4 4 4 4 4 4 4
2 2 3 2 2 2 2 1 2 2 2 2 2 3 3 3 3 3 4 4 4 3 2 3 3 4 4 3 3 4 4 4 4 4 4 4 4 4 4 4 4 4 4 4
2 2 2 2 2 2 2 1 1 1 2 2 2 3 3 3 2 2 4 4 2 3 2 3 4 5 4 3 3 4 4 4 4 4 4 4 4 4 4 4 4 4 4 3
1 2 2 2 1 0 2 3 2 2 2 2 3 3 3 2 2 3 3 3 3 3 2 3 4 4 4 2 3 3 3 4 4 4 4 4 4 4 4 4 4 4 4 3
2 1 1 1 1 2 3 3 2 2 2 2 3 3 2 2 3 3 2 2 3 2 2 3 4 4 3 2 3 3 3 4 4 4 4 4 4 4 4 4 3 3 3 3
2 2 2 3 2 2 2 1 2 2 2 2 3 3 2 2 2 1 1 2 2 2 2 2 2 3 2 2 2 3 3 4 4 4 4 4 4 4 3 3 4 3 4 4
1 1 2 2 2 2 2 2 2 3 3 3 3 3 2 2 1 1 1 1 1 1 2 2 2 2 2 2 3 3 3 3 3 3 4 4 3 3 3 4 3 3 3 4
Wind_Direction
232 238 215 226 228 201 198 197 201 230 234 256 258 245 244 222 189 182 194 193 193 195 203 204 204 215 216 222 222 215 206 215 228 232 229 226 216 206 187 183 199 185 169 177
279 277 242 251 243 218 220 214 219 241 259 258 256 227 219 202 186 196 206 204 202 201 202 207 212 217 218 221 226 205 208 225 229 220 217 214 210 199 184 193 197 175 181 183
261 298 335 267 235 212 213 208 192 219 240 244 237 222 215 204 192 199 208 207 203 204 208 212 214 210 218 220 216 206 217 229 225 214 217 221 208 190 196 202 191 189 198 185
211 26 243 247 246 215 217 231 218 222 232 221 224 219 216 196 192 202 206 204 207 209 211 216 211 208 206 201 194 210 230 240 234 214 221 218 201 204 211 199 191 199 206 197
148 227 274 290 268 192 195 253 231 218 229 218 159 63 311 230 199 202 204 201 203 204 200 199 203 202 186 194 198 213 236 243 238 220 218 208 209 216 214 200 204 205 198 194
152 195 246 257 277 247 135 273 247 201 213 195 130 181 263 239 205 206 200 193 194 190 175 184 201 181 179 206 209 231 241 243 236 220 211 214 217 213 203 195 210 205 202 201
185 221 258 258 272 109 160 250 259 203 210 192 201 222 239 205 203 198 195 200 182 165 179 198 191 174 195 213 230 240 243 245 238 228 218 217 212 203 188 181 178 188 194 203
169 207 254 253 148 177 225 265 247 223 217 210 228 234 217 198 197 181 181 189 172 170 204 210 184 180 207 229 240 235 222 234 240 235 226 215 198 198 183 174 174 190 195 214
195 217 247 243 225 250 233 253 255 244 242 213 222 232 226 221 208 206 204 204 195 182 200 229 207 192 211 237 234 224 229 244 245 236 222 200 187 184 176 178 184 194 194 213
250 268 270 267 265 277 262 258 267 249 230 204 224 234 228 224 221 216 217 212 202 181 192 228 235 223 221 231 215 197 221 244 237 218 222 208 196 187 182 190 196 200 203 212
253 277 299 285 258 271 278 288 292 278 235 207 202 224 219 220 222 218 216 209 193 195 210 229 236 245 244 226 200 207 226 238 234 220 209 205 206 212 207 211 204 201 208 205
234 241 234 265 278 273 269 270 258 259 281 259 213 221 221 220 219 210 206 202 203 209 216 227 230 241 246 230 204 203 224 231 225 221 208 200 207 263 267 236 229 216 211 208
241 256 242 268 286 279 260 261 259 235 228 256 259 222 210 219 216 206 203 204 209 213 216 217 222 239 249 232 210 208 218 225 220 215 209 203 203 209 248 290 261 232 224 219
256 261 266 268 274 285 278 274 284 295 289 251 252 245 205 203 206 203 213 217 212 205 206 205 212 236 242 218 206 220 225 223 215 215 214 212 212 218 216 218 242 269 253 232
262 252 254 274 290 300 309 337 353 325 319 314 298 251 205 199 214 224 223 203 182 188 207 210 225 248 241 212 206 217 224 225 216 208 208 210 212 214 217 221 228 243 267 255
282 294 289 281 271 283 304 290 267 274 281 282 274 261 237 222 224 221 197 172 175 205 220 220 235 245 227 207 209 223 230 230 215 202 197 196 198 201 211 220 228 235 242 242
252 277 283 283 273 276 273 265 254 260 267 261 259 264 249 220 240 235 221 208 207 216 219 221 235 239 220 208 208 220 221 221 213 200 200 203 208 217 220 219 226 235 244 234
231 237 241 237 238 256 274 281 275 271 267 263 260 256 229 212 222 232 230 220 227 250 246 240 236 228 224 220 213 209 205 206 203 205 208 210 218 222 222 224 230 236 254 246
248 249 254 253 249 244 254 266 270 268 269 266 250 249 243 234 230 228 212 199 217 247 260 253 243 220 222 226 209 197 197 200 204 208 210 218 222 222 223 229 234 236 234 233
257 255 250 254 262 255 253 266 269 275 273 261 258 267 269 261 240 218 203 217 230 237 243 243 229 224 227 225 214 199 199 202 206 213 219 220 223 229 230 232 233 234 234 230
257 260 252 244 259 262 248 243 242 258 272 262 244 252 259 265 248 218 211 244 258 245 231 234 225 227 223 224 217 206 205 207 210 214 220 226 231 234 235 236 236 239 241 241
274 265 264 260 264 279 279 253 239 251 274 286 281 272 271 276 270 254 242 244 261 242 221 228 232 241 238 231 212 211 212 215 219 220 223 227 231 237 240 239 238 242 244 245
280 272 271 263 251 263 295 290 260 241 249 259 268 264 257 257 251 249 273 278 273 255 241 242 252 253 245 225 219 218 220 223 226 226 227 229 230 233 238 242 242 240 241 245
283 285 282 286 300 279 283 291 290 279 274 274 271 260 250 256 277 264 265 286 285 265 255 260 263 261 257 235 225 226 229 231 232 233 233 232 231 228 232 238 243 244 242 240
266 271 280 292 284 267 265 281 301 302 302 300 298 294 273 241 245 265 277 277 276 270 272 271 267 265 259 248 235 234 234 236 237 235 230 230 230 230 231 232 234 236 236 237
273 265 258 250 248 257 262 264 269 276 279 295 305 304 300 291 270 276 279 279 277 286 293 282 265 259 250 247 247 247 244 250 254 249 239 235 233 233 236 234 233 235 234 231
303 296 298 304 298 274 257 251 257 268 263 263 285 295 296 298 295 288 282 282 279 277 283 282 271 260 252 243 242 247 248 246 243 240 237 234 233 232 233 234 236 236 236 236
Height
1537 1535 1535 1535 1535 1538 1541 1544 1549 1543 1539 1530 1525 1524 1524 1524 1525 1526 1528 1529 1531 1532 1534 1535 1536 1537 1538 1538 1539 1539 1539 1539 1539 1539 1539 1539 1540 1540 1541 1541 1542 1542 1542 1543
1537 1533 1534 1534 1531 1533 1534 1535 1537 1536 1533 1523 1522 1522 1522 1523 1523 1524 1525 1527 1528 1530 1531 1533 1534 1534 1535 1535 1536 1536 1536 1536 1537 1537 1537 1537 1537 1538 1538 1539 1539 1540 1540 1541
1544 1537 1535 1538 1528 1527 1527 1526 1528 1531 1525 1520 1520 1520 1520 1520 1521 1522 1523 1524 1526 1527 1529 1530 1531 1532 1533 1533 1533 1534 1534 1534 1534 1534 1534 1534 1535 1535 1535 1536 1537 1537 1538 1538
1546 1542 1546 1529 1518 1518 1520 1519 1519 1518 1517 1517 1517 1517 1518 1518 1519 1519 1520 1522 1523 1525 1526 1528 1529 1530 1530 1531 1531 1531 1531 1531 1532 1532 1531 1532 1532 1532 1532 1533 1534 1534 1535 1536
1548 1547 1539 1525 1516 1516 1518 1518 1513 1514 1514 1514 1515 1516 1516 1516 1517 1517 1518 1520 1521 1522 1524 1525 1526 1527 1528 1528 1528 1528 1528 1529 1529 1529 1529 1529 1528 1529 1529 1530 1531 1531 1532 1532
1546 1543 1541 1524 1512 1511 1514 1518 1510 1510 1511 1512 1514 1519 1515 1513 1514 1515 1516 1518 1518 1520 1521 1522 1523 1524 1524 1525 1525 1525 1525 1525 1526 1526 1526 1526 1526 1526 1526 1527 1527 1528 1528 1529
1542 1541 1532 1515 1511 1511 1523 1519 1508 1508 1508 1509 1510 1511 1511 1511 1511 1512 1514 1515 1516 1517 1517 1518 1519 1520 1521 1521 1521 1522 1522 1522 1522 1522 1522 1522 1522 1523 1523 1523 1524 1525 1525 1526
1540 1540 1531 1510 1510 1513 1512 1507 1506 1506 1506 1507 1507 1507 1508 1508 1509 1510 1511 1512 1513 1513 1514 1515 1516 1517 1517 1517 1518 1519 1519 1519 1519 1519 1519 1519 1519 1519 1519 1520 1520 1521 1521 1522
1525 1521 1511 1508 1507 1507 1506 1506 1504 1504 1504 1504 1504 1505 1505 1506 1506 1507 1508 1509 1509 1510 1511 1511 1512 1513 1513 1514 1515 1515 1516 1516 1516 1516 1515 1515 1515 1515 1515 1516 1516 1517 1517 1518
1518 1510 1506 1506 1505 1504 1504 1503 1502 1502 1502 1502 1502 1502 1502 1503 1503 1504 1505 1505 1506 1507 1507 1508 1509 1509 1510 1511 1512 1512 1512 1512 1512 1512 1512 1512 1512 1511 1511 1512 1512 1513 1513 1514
1514 1508 1504 1502 1502 1502 1501 1500 1500 1499 1499 1499 1499 1499 1499 1499 1500 1501 1501 1502 1503 1503 1504 1504 1505 1506 1507 1507 1508 1508 1508 1508 1508 1508 1508 1508 1508 1508 1508 1508 1509 1509 1509 1510
1509 1503 1503 1500 1499 1499 1498 1497 1497 1496 1496 1496 1496 1496 1496 1496 1497 1497 1498 1499 1499 1500 1500 1501 1502 1503 1503 1504 1504 1504 1504 1504 1504 1504 1504 1504 1505 1505 1505 1505 1505 1506 1506 1507
1500 1499 1499 1497 1496 1496 1495 1494 1494 1494 1493 1493 1492 1493 1493 1493 1493 1493 1494 1495 1495 1496 1497 1498 1499 1499 1500 1500 1500 1500 1500 1500 1501 1501 1501 1501 1501 1501 1501 1501 1502 1502 1502 1503
1497 1497 1495 1494 1493 1492 1492 1492 1491 1491 1490 1490 1490 1489 1489 1489 1489 1490 1490 1491 1492 1493 1493 1494 1495 1495 1496 1496 1496 1496 1497 1497 1497 1497 1497 1497 1497 1497 1497 1497 1497 1497 1498 1498
1493 1493 1492 1490 1490 1489 1489 1488 1488 1487 1487 1487 1487 1486 1486 1486 1486 1487 1488 1488 1489 1489 1490 1490 1491 1492 1492 1493 1493 1493 1492 1493 1493 1494 1494 1494 1494 1493 1493 1493 1493 1493 1493 1493
1489 1488 1488 1487 1486 1486 1485 1485 1485 1484 1484 1483 1483 1483 1483 1484 1484 1484 1485 1485 1485 1485 1486 1487 1487 1488 1488 1489 1488 1488 1489 1489 1489 1490 1490 1490 1489 1489 1489 1489 1488 1488 1488 1488
1485 1484 1483 1483 1482 1482 1482 1482 1482 1481 1481 1480 1480 1480 1480 1480 1480 1481 1481 1482 1482 1483 1483 1483 1483 1484 1484 1484 1484 1484 1484 1485 1485 1485 1485 1485 1485 1485 1485 1484 1484 1484 1484 1484
1482 1481 1481 1480 1479 1479 1478 1478 1478 1478 1478 1477 1477 1477 1477 1477 1477 1477 1478 1478 1479 1479 1479 1479 1479 1479 1479 1479 1480 1480 1480 1480 1480 1480 1480 1481 1481 1481 1480 1480 1479 1479 1479 1479
1477 1477 1477 1476 1476 1475 1475 1474 1475 1475 1474 1474 1474 1473 1473 1473 1473 1474 1474 1474 1474 1474 1475 1475 1475 1475 1475 1475 1475 1475 1475 1475 1475 1475 1476 1476 1476 1475 1475 1475 1475 1474 1474 1473
1472 1472 1472 1472 1472 1471 1471 1471 1471 1471 1471 1471 1470 1470 1469 1470 1470 1470 1470 1470 1470 1471 1471 1471 1470 1470 1470 1470 1471 1470 1470 1470 1470 1470 1471 1471 1470 1470 1470 1470 1470 1469 1468 1468
1467 1467 1467 1467 1467 1467 1468 1467 1467 1467 1467 1467 1467 1466 1466 1466 1466 1466 1466 1466 1466 1467 1467 1467 1466 1466 1466 1466 1466 1466 1466 1466 1466 1465 1466 1465 1465 1465 1465 1465 1464 1464 1463 1463
1463 1463 1463 1463 1463 1463 1463 1464 1464 1464 1463 1463 1463 1463 1462 1462 1461 1461 1461 1462 1462 1462 1462 1462 1462 1462 1461 1461 1461 1461 1461 1461 1461 1460 1460 1460 1460 1460 1459 1459 1459 1459 1458 1457
1461 1461 1460 1460 1460 1460 1460 1460 1460 1459 1459 1459 1459 1459 1458 1458 1457 1457 1456 1457 1457 1457 1457 1457 1457 1457 1456 1456 1456 1456 1456 1456 1455 1455 1455 1455 1455 1454 1454 1454 1453 1453 1452 1452
1458 1458 1458 1457 1456 1456 1455 1455 1456 1456 1456 1455 1455 1455 1454 1454 1453 1453 1453 1453 1453 1452 1452 1452 1451 1451 1451 1450 1450 1450 1450 1450 1450 1449 1449 1449 1449 1449 1448 1448 1447 1447 1446 1445
1455 1455 1455 1454 1453 1452 1452 1452 1452 1452 1452 1451 1451 1450 1450 1450 1449 1449 1448 1448 1448 1447 1447 1446 1446 1446 1445 1445 1444 1444 1444 1444 1444 1444 1444 1443 1443 1443 1442 1442 1441 1441 1440 1440
1452 1452 1452 1451 1450 1450 1449 1449 1449 1448 1448 1447 1447 1446 1446 1446 1445 1444 1444 1443 1443 1442 1442 1441 1441 1440 1440 1439 1439 1439 1438 1438 1438 1438 1438 1437 1437 1437 1436 1436 1435 1435 1434 1434
1449 1449 1449 1448 1447 1447 1447 1446 1445 1445 1444 1444 1443 1443 1442 1441 1441 1440 1439 1438 1437 1437 1436 1436 1435 1435 1434 1434 1433 1433 1433 1432 1432 1432 1431 1431 1431 1430 1430 1430 1429 1429 1429 1428